Regional Weather Roundup
Issued by NWS Raleigh/Durham, NC

Home | Current Version | Previous Version | Text Only | Print | Product List | Glossary On
Versions: 1 2 3 4 5 6 7 8 9 10 11 12 13 14 15 16 17 18 19 20 21 22 23 24 25 26 27
000
ASUS42 KRAH 170610
RWRRAH
NORTH CAROLINA WEATHER ROUNDUP
NATIONAL WEATHER SERVICE RALEIGH NC
200 AM EDT TUE OCT 17 2017

NOTE: "FAIR" INDICATES FEW OR NO CLOUDS BELOW 12,000 FEET WITH NO
SIGNIFICANT WEATHER AND/OR OBSTRUCTIONS TO VISIBILITY.

NCZ001-053-055-056-065-067-170700-
WESTERN NORTH CAROLINA

CITY           SKY/WX    TMP DP  RH WIND       PRES   REMARKS
ASHEVILLE      CLEAR     45  38  76 NE3       30.30R
JEFFERSON      CLEAR     42  32  69 N5        30.28S
MORGANTON      CLEAR     38  38 100 CALM      30.33R
HICKORY        CLEAR     47  40  76 NW5       30.28S
RUTHERFORDTON  CLEAR     46  40  79 N3        30.29S
MOUNT AIRY     CLEAR     49  40  69 CALM      30.30S
BOONE          CLEAR     35  34  98 CALM      30.29S
$$

NCZ021-022-025-041-071-084-088-170700-
CENTRAL NORTH CAROLINA

CITY           SKY/WX    TMP DP  RH WIND       PRES   REMARKS
CHARLOTTE      CLEAR     52  40  63 N9        30.26S
GREENSBORO     CLEAR     48  41  76 N5        30.26S
WINSTON-SALEM  CLEAR     47  39  74 N5        30.28R
RALEIGH-DURHAM PTCLDY    50  43  77 N5        30.25S
FORT BRAGG     CLEAR     52  47  85 N6        30.21S
FAYETTEVILLE   CLEAR     53  51  93 N9        30.21S
BURLINGTON     CLEAR     48  42  80 N5        30.26R
LAURINBURG     CLEAR     50  47  89 N7        30.23R
$$

NCZ011-015-027-028-043-044-047-080-103-170700-
NORTHEASTERN NORTH CAROLINA

CITY           SKY/WX    TMP DP  RH WIND       PRES   REMARKS
ROCKY MT-WILSO CLEAR     50  45  83 N9        30.23R
GREENVILLE     CLEAR     48  45  87 N3        30.22R
WASHINGTON     CLEAR     49  45  84 N7        30.20S
ELIZABETH CITY CLEAR     57  49  74 N12       30.19R
MANTEO         MOCLDY   N/A N/A N/A NE23G30   30.16S
CAPE HATTERAS  CLOUDY    64  49  57 NE15G30   30.13S
$$

NCZ078-087-090-091-093-098-101-170700-
SOUTHEASTERN NORTH CAROLINA

CITY           SKY/WX    TMP DP  RH WIND       PRES   REMARKS
LUMBERTON        N/A    N/A N/A N/A N5        30.20S
GOLDSBORO      CLEAR     52  46  82 N7        30.20R
KINSTON        CLEAR     49  46  87 N6        30.21S
KENANSVILLE    PTCLDY    52  46  82 N7        30.21R
NEW BERN       CLEAR     55  48  77 N10       30.19S
CHERRY POINT   PTCLDY    59  48  67 N16       30.17R
BEAUFORT       CLOUDY    61  49  64 N15G24    30.14F
JACKSONVILLE   PTCLDY    55  47  74 N10       30.17R
WILMINGTON     CLOUDY    57  46  66 N12       30.17R
$$





USA.gov is the U.S. government's official web portal to all federal, state and local government web resources and services.